Home > Weather > Pinneberg > Past weeks

Flag for Germany Past Weather in Pinneberg, Schleswig-Holstein, Germany — Yesterday and Last 2 Weeks

Now
68 °F

Broken clouds.


Feels Like: 68 °F
Forecast: 55 / 68 °F
Wind: 16 mph from Southwest

Location: Hamburg-Fuhlsbuettel

Current Time: Jun 29, 2016 at 4:47:47 PM

Latest Report: Jun 29, 2016 at 4:20 PM


Visibility: N/A

Pressure: 29.83 "Hg

Humidity: 60%

Dew Point: 54 °F

Location of PinnebergLocation

Past Weather in Pinneberg — Graph

°F

Pinneberg Temperature Yesterday

Maximum temperature yesterday: 68 °F (at 4:50 PM)
Minimum temperature yesterday: 55 °F (at 4:20 AM)
Average temperature yesterday: 61 °F

High & Low Weather Summary for the Past Weeks

 TemperatureHumidityPressure
High90 °F (Jun 23, 5:50 PM)100% (Jun 14, 8:50 PM)30.21 "Hg (Jun 14, 8:50 PM)
Low46 °F (Jun 20, 1:20 AM)40% (Jun 23, 3:50 PM)29.45 "Hg (Jun 14, 3:20 PM)
Average63 °F80%29.91 "Hg
* Reported Jun 14 3:20 PM — Jun 29 3:20 PM, Pinneberg, Weather by CustomWeather, © 2016

Note: Actual official high and low records may vary slightly from our data, if they occured in-between our weather recording intervals... More about our weather records

Advertising

Pinneberg Weather History for the Previous 24 Hours

Scroll right to see more
 ConditionsComfort  
Time TempWeatherWind HumidityBarometerVisibility
3:20 PM
Wed, Jun 29
66 °FBroken clouds.16 mph64%29.83 "HgN/A
2:50 PM66 °FBroken clouds.20 mph64%29.83 "HgN/A
2:20 PM68 °FScattered clouds.20 mph56%29.80 "HgN/A
1:50 PM66 °FScattered clouds.20 mph64%29.80 "HgN/A
1:20 PM68 °FScattered showers. Scattered clouds.18 mph60%29.80 "HgN/A
12:50 PM64 °FScattered showers. Scattered clouds.14 mph68%29.80 "HgN/A
12:20 PM66 °FScattered showers. Scattered clouds.13 mph64%29.80 "HgN/A
11:50 AM64 °FScattered showers. Partly sunny.14 mph73%29.80 "HgN/A
11:20 AM64 °FPartly sunny.12 mph68%29.80 "HgN/A
10:20 AM64 °FScattered clouds.13 mph78%29.80 "HgN/A
9:50 AM63 °FScattered clouds.12 mph83%29.80 "HgN/A
9:20 AM61 °FScattered clouds.9 mph83%29.77 "HgN/A
8:50 AM59 °FScattered clouds.6 mph94%29.77 "HgN/A
8:20 AM57 °FPartly sunny.9 mph94%29.77 "HgN/A
7:50 AM57 °FLight rain. Partly sunny.6 mph94%29.77 "HgN/A
7:20 AM57 °FLight rain. Partly sunny.6 mph94%29.77 "HgN/A
6:50 AM57 °FLight rain. Overcast.6 mph94%29.77 "HgN/A
6:20 AM55 °FLight rain. Broken clouds.10 mph94%29.77 "HgN/A
5:50 AM57 °FLight rain. Passing clouds.13 mph88%29.80 "HgN/A
5:20 AM57 °FPartly cloudy.9 mph88%29.80 "HgN/A
4:50 AM55 °FPartly cloudy.8 mph94%29.80 "HgN/A
4:20 AM57 °FLight rain. Passing clouds.13 mph82%29.80 "HgN/A
3:50 AM57 °FLight rain. Partly cloudy.12 mph82%29.83 "HgN/A
3:20 AM59 °FPartly cloudy.14 mph72%29.83 "HgN/A
2:50 AM59 °FLight rain. Passing clouds.13 mph72%29.83 "HgN/A
2:20 AM61 °FLight rain. Clear.12 mph63%29.86 "HgN/A
1:50 AM61 °FClear.10 mph63%29.86 "Hg10 mi
1:20 AM61 °FClear.9 mph63%29.89 "Hg10 mi
12:50 AM61 °FClear.8 mph63%29.89 "Hg10 mi
12:20 AM61 °FClear.8 mph63%29.92 "Hg10 mi
11:50 PM
Tue, Jun 28
61 °FClear.7 mph63%29.92 "Hg10 mi
11:20 PM61 °FClear.7 mph63%29.92 "Hg10 mi
10:50 PM63 °FSunny.7 mph59%29.95 "Hg10 mi
10:20 PM63 °FSunny.6 mph56%29.95 "Hg10 mi
9:50 PM63 °FSunny.8 mph56%29.95 "Hg10 mi
9:20 PM64 °FPassing clouds.6 mph52%29.95 "HgN/A
8:50 PM64 °FSunny.8 mph52%29.95 "Hg10 mi
8:20 PM66 °FPassing clouds.3 mph52%29.98 "HgN/A
7:50 PM64 °FPartly sunny.2 mph60%29.98 "HgN/A
7:20 PM64 °FPartly sunny.1 mph64%29.98 "HgN/A
6:50 PM64 °FPartly sunny.2 mph52%29.98 "HgN/A
6:20 PM66 °FPartly sunny.5 mph46%30.01 "HgN/A
5:50 PM68 °FPartly sunny.5 mph49%30.01 "HgN/A
5:20 PM68 °FPartly sunny.3 mph46%30.01 "HgN/A
4:50 PM68 °FScattered clouds.1 mph46%30.01 "HgN/A
4:20 PM64 °FPartly sunny.6 mph56%30.04 "HgN/A
Weather by CustomWeather, © 2016

See weather overviewHow to use our weather pages